Other Public Products
Issued by NWS Grand Forks, ND

Home | Current Version | Previous Version | Graphics & Text | Print | Product List | Glossary On
Versions: 1 2 3 4 5 6 7 8 9 10 11 12 13 14 15 16 17 18 19 20 21 22 23 24 25 26 27 28 29 30 31 32 33 34 35 36 37 38 39 40 41 42 43 44 45 46 47 48 49 50
000
FPUS83 KFGF 210331
OPUFGF
PRAIRIE TO PINES WEATHER ROUNDUP
NATIONAL WEATHER SERVICE EASTERN NORTH DAKOTA/GRAND FORKS ND
1000 PM CDT SAT SEP 20 2014

 **SATELLITE DATA USED TO AUGMENT SKY COVER AT AUTOMATED STATIONS**
 *****  WEATHER ACROSS EASTERN NORTH DAKOTA  *****

CITY           SKY/WX    TMP DP  RH WIND       PRES   REMARKS
GRAND FORKS    CLOUDY    54  51  90 W6        29.92R
GRAND FORKS AF MOCLDY    53  53  99 NW7       29.94R
GRAND CITY NWS   N/A     54 N/A N/A NW9         N/A
BUXTON           N/A     54  53  98 NW6         N/A
DEVILS LAKE    CLEAR     59  43  55 NW17G25   29.98R
FARGO          MOCLDY    56  50  80 N5        29.92R
WAHPETON ARPT  CLOUDY    57  46  67 NW7       29.93R
$$

 *****  WEATHER ACROSS CENTRAL AND WESTERN NORTH DAKOTA  *****

CITY           SKY/WX    TMP DP  RH WIND       PRES   REMARKS
JAMESTOWN      MOCLDY    58  44  60 NW10      29.98R
BISMARCK       CLEAR     61  40  45 NW9       30.09R
MINOT          CLEAR     58  41  53 W12       30.07R
MINOT AFB      CLEAR     54  44  69 NW10      30.06R
GARRISON         N/A     56  40  55 W10       30.09R
WILLISTON      CLEAR     52  36  54 W7        30.16R
DICKINSON      CLEAR     48  36  63 W8        30.16R
HETTINGER      CLEAR     47  36  65 W7        30.18R
$$

 *****  OTHER OBSERVATIONS NORTHEAST NORTH DAKOTA  *****

CITY           SKY/WX    TMP DP  RH WIND       PRES   REMARKS
WALHALLA         N/A     54  54 100 NW7       29.96R
LANGDON        CLOUDY    52  48  87 N6        29.98R
CAVALIER       FAIR      54  50  87 NW8       29.95R
GRAFTON        MOCLDY    54  54 100 NW12      29.94R
CANDO          MOCLDY    57  46  67 N14       30.01R
FORT TOTTEN      N/A     61  47  60 NW8       29.95S
ROLLA          FAIR      54  46  76 NW9       30.02R
RUGBY          MOCLDY    57  46  67 NW10      30.03R
 ***** THE ABOVE OBSERVATIONS ARE NON NWS ARE NOT QUALITY
        CONTROLLED AND MAY MIS-REPORT RAIN FOR SNOW...
$$

 *****  OTHER OBSERVATIONS SOUTHEAST NORTH DAKOTA *****

CITY           SKY/WX    TMP DP  RH WIND       PRES   REMARKS
COOPERSTOWN    NOT AVBL
VALLEY CITY    FAIR      57  45  62 NW10      29.96S
OAKES            N/A     57  45  62 W15       29.99R
GWINNER        CLEAR     57  45  62 CALM      29.98R
SHEYENNE NWR     N/A     59  45  60 W8        29.95
BUFFALO          N/A     61  41  46 NW13        N/A
WYNDMERE         N/A     55  46  71 W6          N/A
 ***** THE ABOVE OBSERVATIONS ARE NON NWS ARE NOT QUALITY
       CONTROLLED AND MAY MIS-REPORT RAIN FOR SNOW...
$$

  *****  WEATHER ACROSS NORTHERN MINNESOTA  *****

CITY           SKY/WX    TMP DP  RH WIND       PRES   REMARKS
FLAG ISLAND    LGT RAIN  52  48  87 NW10      29.87R
WARROAD        CLOUDY    50  46  87 NW3       29.90R
ROSEAU         MOCLDY    48  45  87 NW5       29.90R
HALLOCK        PTCLDY    52  52 100 NW3       29.92R
THF RVR FALLS  MOCLDY    52  48  87 NW9       29.92R
HALSTAD          N/A     53  50  88 NW8         N/A
FOSSTON        PTCLDY    50  48  93 CALM      29.91R
BAUDETTE       LGT RAIN  51  48  89 NW13      29.85R
WASKISH        RAIN      52  48  87 NW6       29.86R
CROOKSTON      MOCLDY    54  52  94 NW8       29.93R
$$
  *****  WEATHER ACROSS CENTRAL AND WEST MINNESOTA  *****

CITY           SKY/WX    TMP DP  RH WIND       PRES   REMARKS
BEMIDJI        CLOUDY    49  48  95 NW6       29.87R
PARK RAPIDS    CLOUDY    51  49  92 NW13      29.87R
WADENA         CLOUDY    54  48  82 W5        29.88R
DETROIT LAKES  PTCLDY    54  50  87 NW8       29.91R
MOORHEAD       MOCLDY    55  55 100 NW5       29.93R
FERGUS FALLS   CLOUDY    57  48  72 N12       29.92R
ELBOW LAKE     FAIR      52  49  89 W5        29.91R
MORRIS MN      CLEAR     57  50  77 W12       29.90S
STAPLES        MOCLDY    54  48  82 NW10      29.87R
WHEATON        CLEAR     55  46  71 W10       29.94S
$$
  *****  WEATHER ELSEWHERE ACROSS MINNESOTA  *****

CITY           SKY/WX    TMP DP  RH WIND       PRES   REMARKS
DULUTH         LGT RAIN  54  51  90 NW6       29.71R
INTRNTL FALLS  LGT RAIN  51  49  92 NW14      29.81R
ELY            CLOUDY    50  48  93 CALM      29.73R
CLOQUET        LGT RAIN  54  52  94 W8        29.71S
BRAINERD       PTCLDY    55  46  71 NW12      29.83R
HIBBING        LGT RAIN  53  49  86 NW16G23   29.77R
ALEXANDRIA     PTCLDY    53  50  89 W9        29.90R
SAINT CLOUD    PTCLDY    59  50  72 W14       29.84S
MINNEAPOLIS    CLEAR     58  52  80 W8        29.85S
$$

  *****  WEATHER ACROSS SOUTH DAKOTA  *****

CITY           SKY/WX    TMP DP  RH WIND       PRES   REMARKS
SIOUX FALLS    PTCLDY    60  45  57 NW6       30.02R
BROOKINGS      NOT AVBL
WATERTOWN      CLEAR     59  45  59 W9        29.99R
HURON          CLEAR     53  41  63 NW8       30.04R
SISSETON         N/A     61  45  55 NW15      29.94R
ABERDEEN       CLEAR     61  43  51 NW13      30.03R
MITCHELL       CLEAR     58  44  60 NW8       30.05R
PIERRE         CLEAR     55  39  54 NW12      30.10R
MOBRIDGE       CLEAR     54  46  74 NW7       30.08R
RAPID CITY     CLEAR     54  40  59 N8        30.23R
$$

  *****  SOME WEATHER IN NEARBY STATES *****

CITY           SKY/WX    TMP DP  RH WIND       PRES   REMARKS
GLASGOW MT     CLEAR     55  36  48 NW7       30.20R
GREAT FALLS MT CLEAR     61  40  45 E12       30.24R
CHEYENNE WY    MOCLDY    63  43  48 NE10      30.36R
SCOTTSBLUFF NE CLEAR     63  41  44 NE9       30.26R
OMAHA NE       PTCLDY    73  54  51 NW14      29.99R
DES MOINES IA  MOCLDY    73  52  47 N23G30    29.93R
DAVENPORT IA   CLEAR     70  65  84 SW12      29.79F
CHICAGO IL     PTCLDY    69  63  81 SW3       29.77F
EAU CLAIRE WI  CLOUDY    58  54  86 W13       29.78R
LA CROSSE WI   CLOUDY    62  59  90 W9        29.79R
$$

  *****  SOME NATIONAL WEATHER *****

CITY           SKY/WX    TMP DP  RH WIND       PRES   REMARKS
LA GUARDIA NY  CLOUDY    70  63  78 S8        30.06F
RALEIGH NC     CLOUDY    68  61  78 NE5       30.01F
ATLANTA GA     CLEAR     71  61  70 SE3       30.05S
NEW ORLEANS LA PTCLDY    80  71  74 SE7       29.99R
OKLAHOMA CITY  CLEAR     74  67  78 S3        30.03R
ALBUQUERQUE NM PTCLDY    77  51  40 E15       30.16R
SALT LAKE CITY MOCLDY    74  53  48 CALM      30.06S
LOS ANGELES CA PTCLDY    69  62  78 W10       29.91R
BOISE ID       CLEAR     74  48  39 CALM      30.01R
SEATTLE WA     PTCLDY    68  56  65 N7        29.92S
$$

*** WEATHER ACROSS MANITOBA...SASKATCHEWAN AND ONTARIO ***
                ***ONTARIO***

CITY           SKY/WX    TMP DP  RH WIND       PRES   REMARKS
GERALDTON      CLOUDY    43  43 100 N5        29.79R FOG
THUNDER BAY    CLOUDY    52  50  93 NE5       29.74S
SIOUX LOOKOUT  MOCLDY    46  45  93 VRB2      29.82R
TORONTO        LGT RAIN  72  63  73 SW15G22   29.76F
BIG TROUT LK   CLOUDY    41  34  75 NW6       29.87R
PICKLE LAKE    NOT AVBL
DRYDEN         CLOUDY    52  46  82 N6        29.82R
KENORA         LGT RAIN  48  48 100 NW7       29.86R
$$
                *** MANITOBA***

CITY           SKY/WX    TMP DP  RH WIND       PRES   REMARKS
BRANDON        MOCLDY    55  48  76 NW10      30.01R
DAUPHIN        CLOUDY    54  50  87 W6        29.99R
ISLAND LAKE    CLOUDY    50  43  76 CALM      29.90R
PILOT MOUND    NOT AVBL
THE PAS        LGT RAIN N/A N/A N/A NW9         N/A
THOMPSON       MOCLDY    43  41  93 N5        29.95R
WINNIPEG       PTCLDY    50  48  93 W8        29.92R
LYNN LAKE      CLOUDY    43  41  93 SW5       29.95R
CHURCHILL      MOCLDY    37  34  87 NW5       29.96S
GILLAM         CLEAR     36  34  93 E3        29.94R
$$
                ***SASKATCHEWAN***

CITY           SKY/WX    TMP DP  RH WIND       PRES   REMARKS
ESTEVAN        PTCLDY    52  43  71 NW9       30.11R
KINDERSLEY     PTCLDY    52  41  66 W7        30.17R
LLOYDMINSTER   CLEAR     46  34  61 W8        30.11R
PRINCE ALBERT  CLEAR     46  43  87 CALM      30.06R
REGINA         CLEAR     52  41  66 W9        30.12R



USA.gov is the U.S. government's official web portal to all federal, state and local government web resources and services.